This demonstration page uses our WeatherBlox Daily Observations layout. Learn more.

Left ArrowRight Arrow

53.62937, 11.41316

Hourly Observations for May 9, 2021

Temp ( °F °C ) Dew Point ( °F °C ) Humidity (%) Winds ( mph kmh ) Pressure ( in mb ) Visibility ( mi km ) Precip ( " mm )
7:50 am 07:50 Mostly Sunny 55 13 46 8 72 72 SE 5 7 29.74 1007 7 11 N/A
8:20 am 08:20 Mostly Sunny 59 15 46 8 63 63 SSE 5 7 29.74 1007 7 11 N/A
8:50 am 08:50 Mostly Sunny 61 16 46 8 59 59 S 5 7 29.74 1007 7 11 N/A
9:20 am 09:20 Mostly Sunny 63 17 46 8 56 56 SSE 7 11 29.74 1007 7 11 N/A
9:50 am 09:50 Mostly Sunny 63 17 48 9 59 59 S 7 11 29.74 1007 7 11 N/A
10:20 am 10:20 Mostly Sunny 64 18 50 10 60 60 S 7 11 29.74 1007 7 11 N/A
10:50 am 10:50 Mostly Sunny 66 19 50 10 56 56 S 8 13 29.74 1007 7 11 N/A
11:20 am 11:20 Mostly Sunny 68 20 52 11 56 56 S 8 13 29.74 1007 7 11 N/A
11:50 am 11:50 Mostly Sunny 70 21 50 10 50 50 S 8 13 29.71 1006 7 11 N/A
12:20 pm 12:20 Mostly Sunny 72 22 52 11 50 50 S 13 20 29.71 1006 7 11 N/A
12:50 pm 12:50 Mostly Sunny 72 22 50 10 47 47 S 13 20 29.71 1006 7 11 N/A
1:20 pm 13:20 Mostly Sunny 72 22 48 9 44 44 S 12 19 29.71 1006 7 11 N/A
1:50 pm 13:50 Mostly Sunny 75 24 46 8 36 36 SSE 12 19 29.68 1005 7 11 N/A
2:20 pm 14:20 Mostly Sunny 75 24 50 10 41 41 SE 10 17 29.71 1006 7 11 N/A
2:50 pm 14:50 Mostly Sunny 77 25 48 9 36 36 SSE 9 15 29.68 1005 7 11 N/A
3:20 pm 15:20 Mostly Sunny 77 25 48 9 36 36 S 10 17 29.68 1005 7 11 N/A
3:50 pm 15:50 Mostly Sunny 77 25 48 9 36 36 SE 8 13 29.68 1005 7 11 N/A
4:20 pm 16:20 Mostly Sunny 79 26 50 10 37 37 SE 8 13 29.65 1004 7 11 N/A
4:50 pm 16:50 Mostly Sunny 79 26 50 10 37 37 ESE 10 17 29.65 1004 7 11 N/A
5:20 pm 17:20 Mostly Sunny 77 25 50 10 39 39 SE 8 13 29.65 1004 7 11 N/A
5:50 pm 17:50 Mostly Sunny 77 25 48 9 36 36 SE 8 13 29.65 1004 7 11 N/A
6:20 pm 18:20 Mostly Sunny 77 25 46 8 34 34 SSE 7 11 29.62 1003 7 11 N/A
6:50 pm 18:50 Mostly Sunny 77 25 46 8 34 34 SE 8 13 29.62 1003 7 11 N/A
7:20 pm 19:20 Mostly Sunny 73 23 48 9 41 41 SE 6 9 29.62 1003 7 11 N/A
7:50 pm 19:50 Mostly Sunny 73 23 50 10 44 44 ESE 5 7 29.62 1003 7 11 N/A
8:20 pm 20:20 Mostly Sunny 73 23 52 11 47 47 ESE 6 9 29.62 1003 7 11 N/A
8:50 pm 20:50 Mostly Sunny 72 22 52 11 50 50 SE 7 11 29.62 1003 7 11 N/A
9:20 pm 21:20 Mostly Clear 72 22 52 11 50 50 SE 8 13 29.62 1003 7 11 N/A
9:50 pm 21:50 Mostly Clear 70 21 54 12 57 57 SE 8 13 29.59 1002 7 11 N/A

Powered by AerisWeather